Wind_Speed
6 6 6 6 6 6 7 7 6 6 6 6 6 6 6 6 6 6 7 7 8 9 9 9 10 11 11 11 12 13 13 13 13 12 13 13 13 12 12 12 12 13 13
6 6 6 6 6 7 7 7 7 6 6 5 6 6 6 6 7 7 7 7 8 8 9 9 9 10 10 11 12 12 12 12 13 13 13 13 13 13 13 13 13 13 13
6 6 6 6 7 7 8 7 6 6 6 6 6 6 6 6 6 6 7 7 7 7 7 8 9 10 10 11 12 13 13 13 13 13 13 13 13 14 14 14 14 14 14
6 6 6 7 7 7 7 7 6 6 6 6 6 6 6 5 5 5 6 6 6 6 6 7 8 9 10 11 12 13 13 13 13 13 13 13 13 14 14 14 15 15 14
6 6 6 7 7 7 7 7 7 6 6 5 5 5 5 4 5 5 5 5 5 6 6 7 7 7 8 9 11 12 12 12 12 12 12 12 13 13 14 14 15 15 15
6 6 6 7 7 7 7 6 6 6 6 5 4 4 4 4 4 4 5 5 5 6 7 7 7 6 6 7 9 11 11 12 12 12 13 13 13 14 14 14 15 16 16
6 6 6 7 7 6 6 6 6 6 6 5 4 4 3 3 4 4 5 5 5 6 7 7 7 7 7 7 8 10 11 11 12 13 14 14 14 15 14 15 15 15 16
6 6 6 6 6 6 6 6 6 5 5 4 4 3 3 4 4 4 4 4 5 5 6 7 7 8 9 8 8 10 10 11 12 13 14 14 15 15 15 15 15 16 16
6 6 6 5 6 6 6 6 6 5 4 4 4 4 4 4 3 4 4 4 5 5 6 7 7 7 8 10 10 10 10 12 12 13 14 14 15 15 16 16 16 17 17
6 6 6 6 6 6 6 6 6 5 4 4 3 3 4 4 3 4 4 5 5 5 6 7 6 7 7 8 9 10 11 11 12 14 15 16 16 17 16 16 17 18 18
7 6 6 6 6 6 6 6 5 5 5 4 4 4 4 4 4 5 5 5 5 6 6 7 6 7 7 8 9 10 12 13 14 15 16 16 17 17 17 18 18 18 19
7 6 6 6 6 6 6 5 5 5 5 5 5 5 5 5 5 5 6 6 6 6 7 7 7 7 7 9 10 11 12 13 14 15 16 16 17 18 18 18 19 19 20
7 7 7 6 6 6 6 6 6 6 5 5 6 6 6 6 6 6 6 6 6 6 6 6 6 7 7 9 10 11 12 13 14 15 15 16 17 18 19 19 19 20 21
7 6 6 6 6 6 6 6 6 6 6 6 7 6 6 7 7 7 6 6 6 6 6 6 7 8 9 10 11 11 11 12 13 14 15 15 16 17 17 18 19 20 20
7 7 7 7 7 6 6 6 6 6 7 7 7 6 7 7 6 6 6 6 7 8 8 8 8 9 10 10 11 11 11 11 12 13 14 14 15 15 16 17 18 18 18
8 7 7 7 7 7 7 6 7 7 7 7 7 7 7 6 6 7 7 8 8 8 9 9 10 10 11 12 12 12 12 12 13 13 13 14 15 15 16 17 17 17 18
9 8 7 7 7 8 8 7 7 7 8 8 8 7 7 7 7 7 8 9 9 10 10 11 12 12 13 13 14 14 14 14 14 14 15 15 15 16 17 18 18 19 19
9 9 8 8 8 8 8 8 8 9 9 9 8 8 8 8 9 9 9 10 11 11 12 12 13 14 14 15 15 15 15 16 16 16 16 16 17 17 18 19 19 20 20
11 11 10 10 10 9 8 9 9 10 10 9 9 9 10 10 10 11 11 11 12 12 13 14 15 15 16 17 17 17 16 17 18 19 18 18 18 18 19 20 20 21 22
12 12 11 11 11 10 10 10 10 11 11 10 11 11 11 11 11 12 13 13 13 14 15 16 16 17 17 18 18 18 18 18 19 19 20 20 19 20 21 21 22 23 24
13 13 12 12 12 11 12 12 12 12 12 12 12 12 12 13 13 14 14 14 15 16 17 17 17 18 18 18 18 19 19 19 20 20 20 20 20 21 22 23 24 25 26
14 15 13 13 13 13 13 13 14 13 13 13 13 14 14 14 15 15 16 16 17 17 18 18 19 19 19 19 19 20 21 21 21 22 23 22 23 23 25 26 27 28 29
14 14 14 14 14 14 14 15 15 15 16 16 16 16 16 16 17 17 17 18 19 19 20 20 20 20 21 21 21 22 23 24 25 25 25 25 26 27 28 29 30 31 32
15 15 15 15 16 16 16 16 17 17 17 18 18 18 18 18 19 19 20 20 20 21 21 22 22 22 23 24 24 26 27 27 28 27 27 27 28 29 29 31 32 33 34
16 16 17 17 18 18 19 19 19 19 19 19 20 20 20 20 20 21 22 22 22 23 23 24 24 24 26 27 28 29 29 29 29 29 30 30 30 31 32 32 34 34 35
16 17 18 19 19 19 20 20 20 20 20 21 21 21 22 22 22 23 24 24 24 25 25 26 27 28 29 30 31 31 31 31 31 31 32 32 33 33 34 35 36 36 37
Wind_Direction
339 337 336 334 330 327 325 325 322 315 312 306 292 284 273 268 264 253 251 253 252 250 249 247 244 243 243 242 241 238 238 239 240 240 238 241 240 241 241 243 244 246 248
336 337 336 333 331 328 325 328 328 327 320 306 293 283 279 272 265 259 256 256 256 254 250 250 248 247 242 243 243 242 240 240 240 241 239 240 240 243 243 246 247 248 250
333 333 336 335 334 334 336 330 327 326 319 307 297 290 286 278 265 256 255 256 258 257 256 258 256 250 246 245 242 241 240 237 237 238 241 243 242 244 247 247 250 251 253
327 331 333 334 334 333 333 333 328 324 320 314 306 298 286 275 266 259 258 259 259 259 259 258 257 256 252 246 242 240 239 237 237 238 242 245 246 246 248 250 252 252 253
324 324 329 335 333 330 330 330 328 328 321 316 310 298 287 276 264 261 262 264 262 262 261 260 259 263 261 250 241 235 237 239 239 239 242 246 248 249 250 251 252 250 251
318 319 324 332 332 329 329 329 327 326 323 317 310 300 293 284 267 263 265 265 261 262 263 263 261 262 257 251 244 240 241 242 242 244 245 249 251 254 255 254 253 253 254
314 317 319 324 330 330 330 329 327 325 324 319 313 306 298 287 277 270 271 271 267 265 264 265 267 262 256 252 244 238 242 245 246 249 251 254 255 257 259 261 260 257 256
310 314 318 320 324 329 332 334 335 331 326 318 313 308 301 296 288 282 280 277 276 273 272 272 270 267 260 256 254 244 244 248 252 254 256 259 257 259 263 264 264 261 260
306 309 311 315 317 324 330 334 339 340 335 323 315 313 312 310 299 294 289 283 281 281 280 278 275 274 266 262 259 250 251 253 255 259 260 260 261 263 265 264 265 265 264
298 304 307 308 311 318 327 331 330 332 336 330 321 316 310 306 303 300 294 291 288 288 288 286 280 277 271 267 267 265 262 262 262 264 265 264 266 267 268 268 268 267 266
291 296 299 301 301 308 317 325 328 332 332 328 324 320 312 307 302 301 301 299 297 294 292 289 287 282 278 277 277 274 269 266 266 267 267 268 268 268 268 269 268 267 266
295 295 291 296 294 299 306 313 320 324 323 323 324 319 317 314 310 307 304 301 300 296 295 293 289 288 286 284 284 280 275 270 268 268 270 271 270 269 268 268 268 269 269
287 292 292 291 292 295 298 303 308 311 314 317 318 318 317 315 311 308 303 303 300 300 298 294 292 296 296 297 292 286 281 277 274 274 274 275 273 271 269 267 268 269 270
283 289 291 289 292 296 295 301 303 306 309 312 313 313 314 315 313 309 303 303 302 301 302 300 301 302 304 304 300 297 291 288 281 277 275 277 278 275 273 270 270 271 271
278 283 288 286 285 285 290 295 300 304 308 306 307 308 312 311 310 310 307 306 306 303 302 302 303 304 306 306 304 301 302 297 291 285 280 281 281 278 276 275 274 274 274
276 278 282 282 281 278 281 291 303 306 303 302 301 301 304 299 298 301 303 304 304 302 302 301 302 304 305 304 303 300 298 298 297 291 288 285 283 281 278 275 276 277 277
267 274 277 284 285 283 283 289 299 307 308 305 302 303 301 296 295 295 295 297 299 301 302 303 304 305 305 303 301 300 298 297 299 297 293 290 288 286 284 281 279 278 278
264 269 272 278 284 284 284 290 296 301 303 303 302 298 297 297 294 292 292 294 297 299 300 301 303 304 305 305 304 300 298 297 295 297 294 290 290 290 287 284 284 284 282
262 267 269 272 278 279 281 288 292 297 298 297 297 299 301 298 296 295 294 295 298 299 301 301 301 301 301 302 301 300 299 297 295 294 294 291 289 288 287 286 286 286 286
263 269 268 271 274 275 281 286 289 292 294 295 294 295 299 301 300 297 295 295 296 297 299 299 299 298 299 299 299 298 298 299 297 295 294 293 290 288 288 286 286 286 286
265 267 268 269 271 277 280 284 285 287 290 290 292 294 296 298 298 298 297 298 297 297 297 298 299 298 299 299 300 300 299 298 299 297 296 294 291 290 289 289 289 288 288
266 265 264 268 272 275 278 281 282 282 285 288 289 289 291 294 295 296 297 296 296 298 299 298 297 297 298 299 299 301 300 298 297 295 294 292 290 289 288 288 288 287 287
264 259 262 268 273 275 277 280 280 281 282 285 287 288 288 289 289 292 294 296 297 297 297 299 300 299 297 297 298 299 299 298 296 295 292 292 291 290 289 289 288 288 288
263 263 265 268 272 274 276 279 281 281 283 286 286 287 287 287 288 289 291 293 295 296 297 298 298 297 297 297 297 297 297 296 296 293 292 294 293 293 293 292 290 290 289
265 265 266 268 271 273 276 279 280 281 283 285 286 286 285 285 286 286 288 290 292 294 295 296 296 296 296 296 295 296 296 295 294 292 294 294 294 294 294 294 294 293 292
270 269 267 269 271 274 277 280 279 279 281 282 284 285 287 287 286 286 288 289 291 293 295 296 295 295 295 295 295 295 295 294 293 294 294 293 293 293 294 293 293 293 292
Height
5889 5888 5887 5886 5885 5885 5884 5884 5883 5882 5881 5880 5880 5880 5881 5881 5881 5882 5883 5883 5884 5885 5886 5887 5888 5889 5890 5891 5893 5894 5896 5898 5900 5901 5902 5904 5905 5907 5908 5909 5910 5911 5912
5888 5887 5886 5885 5885 5884 5883 5882 5882 5881 5880 5880 5879 5879 5879 5879 5879 5880 5881 5881 5882 5883 5884 5885 5886 5887 5888 5889 5891 5892 5894 5896 5897 5899 5900 5902 5903 5904 5906 5907 5908 5909 5910
5887 5886 5885 5884 5884 5883 5882 5881 5880 5879 5879 5878 5878 5878 5878 5878 5878 5879 5880 5880 5881 5882 5882 5883 5884 5885 5886 5887 5888 5890 5891 5893 5895 5897 5898 5899 5901 5902 5903 5904 5905 5906 5907
5886 5885 5884 5884 5883 5882 5881 5880 5879 5878 5877 5877 5877 5876 5876 5876 5877 5877 5878 5879 5880 5880 5881 5882 5883 5884 5884 5884 5884 5886 5888 5890 5892 5894 5896 5897 5898 5899 5900 5901 5902 5903 5904
5885 5885 5884 5883 5882 5881 5880 5879 5878 5877 5876 5876 5875 5875 5875 5875 5876 5876 5877 5878 5879 5879 5880 5881 5882 5882 5881 5880 5880 5883 5886 5888 5890 5892 5893 5894 5896 5897 5897 5898 5899 5900 5901
5885 5884 5883 5882 5881 5880 5879 5878 5877 5876 5875 5874 5874 5874 5874 5874 5875 5875 5876 5877 5878 5878 5879 5880 5880 5880 5879 5879 5879 5881 5883 5886 5888 5889 5891 5892 5893 5894 5895 5895 5896 5897 5898
5884 5883 5882 5881 5880 5879 5878 5877 5876 5875 5874 5874 5874 5874 5874 5874 5874 5875 5875 5876 5877 5877 5878 5879 5879 5879 5878 5878 5878 5880 5882 5884 5885 5887 5888 5889 5890 5891 5891 5892 5892 5893 5894
5883 5882 5881 5881 5880 5879 5878 5877 5875 5874 5874 5873 5873 5873 5873 5874 5874 5874 5875 5875 5876 5876 5877 5877 5878 5877 5877 5877 5878 5879 5880 5881 5883 5884 5885 5886 5886 5887 5888 5888 5889 5889 5890
5882 5881 5881 5880 5879 5878 5877 5876 5875 5874 5873 5873 5873 5873 5873 5873 5873 5874 5874 5875 5875 5875 5875 5876 5876 5876 5876 5876 5877 5877 5878 5879 5880 5881 5881 5882 5883 5884 5884 5884 5885 5886 5886
5881 5880 5880 5879 5878 5877 5877 5876 5875 5874 5873 5873 5872 5872 5872 5872 5873 5873 5874 5874 5874 5874 5874 5874 5874 5874 5874 5874 5875 5875 5875 5876 5877 5877 5878 5878 5879 5879 5880 5880 5881 5881 5882
5879 5879 5878 5878 5877 5877 5876 5875 5874 5874 5873 5872 5872 5872 5871 5871 5872 5872 5872 5872 5872 5872 5872 5872 5872 5872 5872 5872 5872 5872 5872 5873 5873 5873 5873 5874 5874 5875 5875 5875 5876 5876 5877
5878 5877 5877 5877 5876 5876 5875 5875 5874 5873 5873 5872 5871 5871 5871 5871 5870 5870 5870 5871 5870 5870 5870 5870 5870 5870 5870 5870 5870 5869 5869 5869 5869 5869 5869 5869 5869 5869 5869 5870 5870 5871 5871
5876 5876 5876 5875 5875 5875 5874 5874 5873 5873 5872 5872 5871 5871 5870 5870 5869 5869 5869 5869 5869 5869 5869 5868 5868 5868 5868 5868 5867 5866 5866 5865 5865 5865 5864 5863 5863 5863 5863 5864 5865 5865 5866
5875 5875 5874 5874 5874 5873 5873 5873 5872 5872 5871 5871 5870 5870 5869 5869 5868 5868 5868 5868 5867 5867 5867 5867 5866 5866 5866 5865 5864 5863 5862 5861 5861 5860 5859 5858 5858 5857 5857 5858 5859 5859 5859
5873 5873 5873 5872 5872 5872 5872 5872 5871 5871 5870 5869 5869 5868 5868 5867 5867 5867 5866 5866 5866 5866 5866 5865 5864 5864 5863 5863 5862 5861 5860 5859 5857 5856 5855 5854 5853 5853 5853 5853 5854 5854 5854
5871 5871 5871 5871 5871 5871 5870 5870 5870 5869 5869 5868 5868 5867 5866 5866 5866 5865 5865 5865 5865 5864 5864 5863 5863 5862 5861 5860 5859 5858 5857 5856 5854 5853 5852 5851 5850 5849 5849 5849 5849 5849 5849
5869 5869 5870 5869 5869 5869 5869 5869 5869 5868 5867 5867 5866 5865 5865 5864 5864 5864 5864 5863 5863 5862 5862 5861 5860 5859 5859 5857 5856 5855 5854 5853 5851 5850 5848 5847 5847 5846 5846 5845 5845 5845 5844
5867 5867 5868 5868 5868 5867 5867 5867 5867 5866 5866 5865 5864 5864 5863 5863 5862 5862 5861 5861 5860 5860 5859 5858 5857 5856 5855 5854 5853 5852 5850 5849 5847 5846 5845 5844 5843 5842 5841 5841 5841 5840 5839
5864 5865 5865 5865 5865 5865 5865 5865 5864 5864 5863 5863 5862 5862 5861 5861 5860 5860 5859 5858 5858 5857 5856 5855 5854 5853 5852 5850 5849 5848 5846 5845 5843 5842 5840 5839 5838 5837 5837 5836 5835 5835 5834
5861 5862 5862 5863 5863 5863 5863 5863 5862 5862 5861 5860 5860 5860 5859 5858 5858 5857 5856 5855 5854 5854 5853 5851 5850 5849 5847 5846 5845 5843 5842 5840 5839 5837 5836 5834 5833 5832 5831 5831 5830 5829 5828
5858 5859 5859 5860 5860 5860 5860 5860 5859 5859 5858 5858 5857 5857 5856 5855 5854 5853 5853 5852 5851 5850 5849 5847 5846 5845 5843 5842 5840 5839 5837 5836 5834 5832 5831 5829 5828 5827 5826 5824 5823 5822 5821
5855 5855 5856 5856 5857 5857 5856 5856 5856 5855 5855 5855 5854 5854 5853 5852 5851 5850 5849 5848 5847 5846 5844 5843 5842 5840 5839 5837 5835 5834 5832 5830 5829 5827 5825 5823 5822 5821 5819 5818 5816 5814 5813
5851 5852 5852 5853 5853 5853 5853 5852 5852 5852 5851 5851 5850 5850 5849 5848 5847 5846 5844 5843 5842 5841 5840 5838 5837 5835 5833 5832 5830 5828 5826 5824 5822 5820 5818 5817 5815 5813 5811 5809 5807 5806 5804
5847 5848 5848 5849 5849 5849 5849 5848 5848 5847 5847 5846 5846 5845 5844 5843 5842 5841 5840 5839 5837 5836 5834 5833 5831 5829 5827 5825 5823 5821 5819 5817 5815 5812 5810 5808 5806 5804 5802 5800 5798 5796 5794
5843 5843 5844 5844 5845 5844 5844 5844 5843 5843 5842 5841 5840 5840 5839 5838 5837 5836 5835 5833 5832 5830 5829 5827 5825 5822 5820 5818 5816 5813 5811 5809 5807 5804 5802 5799 5797 5795 5793 5791 5788 5785 5783
5839 5839 5839 5839 5839 5839 5839 5838 5838 5837 5837 5836 5835 5834 5833 5832 5831 5829 5828 5827 5826 5824 5822 5820 5818 5816 5813 5810 5807 5805 5802 5800 5797 5795 5792 5790 5788 5785 5783 5781 5778 5774 5772